Regional Weather Roundup
Issued by NWS Goodland, KS

Home | Current Version | Previous Version | Graphics & Text | Print | Product List | Glossary Off
Versions: 1 2 3 4 5 6 7 8 9 10 11 12 13 14 15 16 17 18 19 20 21 22 23 24 25 26 27 28 29 30 31 32 33 34 35 36 37 38 39 40 41 42 43 44 45 46 47 48 49 50

000
ASUS43 KGLD 092159
RWRGLD

GOODLAND FORECAST AREA HOURLY WEATHER ROUNDUP
NATIONAL WEATHER SERVICE GOODLAND KS
300 PM MST TUE FEB 09 2016

...OFFICIAL OBSERVATIONS...

CITY           SKY/WX    TMP DP  RH WIND       PRES   REMARKS
GOODLAND KS    SUNNY     48  31  51 NW10      30.23S
HILL CITY KS   CLOUDY    38  21  50 NW6       30.28S
IMPERIAL NEB   CLOUDY    43  30  60 NW6       30.21S
MCCOOK NEB     CLOUDY    36  22  56 SW7       30.23F
AKRON CO       SUNNY     43  31  62 W12       30.25S
BURLINGTON CO  SUNNY     45  30  55 NW10      30.25S
LIMON CO       SUNNY     42  27  55 W6        30.29S
$$

...UNOFFICIAL OBSERVATIONS...

CITY           SKY/WX    TMP DP  RH WIND       PRES   REMARKS
COLBY KS       CLOUDY    39  30  70 SW5       30.24S
GOVE KS          N/A     41  32  70 MISG        N/A
LENORA KS        N/A     38  32  79 MISG        N/A
NORTON KS      CLOUDY    36  19  51 CALM      30.24
SHARON SPRINGS   N/A     49  33  53 NW17        N/A
TRENTON NEB      N/A     42  32  68 MISG        N/A
KIT CARSON CO    N/A     48  31  52 MISG        N/A
YUMA CO          N/A     44  33  66 N12         N/A
$$




USA.gov is the U.S. government's official web portal to all federal, state and local government web resources and services.